User: anonymous   Login
Location: Unspecified
(0.0000°N, 0.0000°E)
Time: 04:55:07
(UTC+00:00)
Language:

Kosmos-1627 - Orbit

View from above orbital plane
View from above orbital plane
View from above satellite
View from above satellite

Ground track
Ground track

The orbit data is extracted from the following two-line orbital elements,

1 15505U 85011A   18016.91389510  .00000023  00000-0  82569-5 0  9993
2 15505  82.9215 168.5284 0040868 269.2100 205.9255 13.74333808653096
Epoch (UTC): 16 January 2018 21:56:00
Eccentricity: 0.0040868
inclination: 82.9215°
perigee height: 954 km
apogee height: 1014 km
right ascension of ascending node: 168.5284°
argument of perigee: 269.2100°
revolutions per day: 13.74333808
mean anomaly at epoch: 205.9255°
orbit number at epoch: 65309

The dashed part of the orbit path shows where the satellite is in the earth's shadow,  

DLR